Time,TemperatureF,DewpointF,PressureIn,WindDirection,WindDirectionDegrees,WindSpeedMPH,WindSpeedGustMPH,Humidity,HourlyPrecipIn,Conditions,Clouds,dailyrainin,SoftwareType,DateUTC
2013-01-22 00:00:00,68.0,0.0,30.02,WNW,294,0.0,4.0,0,0.00,,CLR,0.02,VWS V13.01,2013-01-22 05:00:00,
2013-01-22 00:01:00,68.0,0.0,30.02,WNW,294,0.0,4.0,0,0.00,,CLR,0.02,VWS V13.01,2013-01-22 05:01:00,
2013-01-22 00:03:00,67.9,0.0,30.02,WNW,294,0.0,0.0,0,0.00,,CLR,0.00,VWS V13.01,2013-01-22 05:03:00,
2013-01-22 00:08:00,67.8,0.0,30.02,WNW,294,0.0,2.0,0,0.00,,CLR,0.00,VWS V13.01,2013-01-22 05:08:00,
2013-01-22 00:13:00,67.7,0.0,30.02,WNW,293,0.0,5.0,0,0.00,,CLR,0.00,VWS V13.01,2013-01-22 05:13:00,
2013-01-22 00:18:00,67.6,0.0,30.02,WNW,294,4.0,5.0,0,0.00,,CLR,0.00,VWS V13.01,2013-01-22 05:18:00,
2013-01-22 00:23:00,67.5,0.0,30.02,WNW,294,0.0,5.0,0,0.00,,CLR,0.00,VWS V13.01,2013-01-22 05:23:00,
2013-01-22 00:28:00,67.4,0.0,30.02,WNW,294,0.0,5.0,0,0.00,,CLR,0.00,VWS V13.01,2013-01-22 05:28:00,
2013-01-22 00:33:00,67.3,0.0,30.02,WNW,294,0.0,3.0,0,0.00,,CLR,0.00,VWS V13.01,2013-01-22 05:33:00,
2013-01-22 00:38:00,67.2,0.0,30.02,WNW,294,0.0,3.0,0,0.00,,CLR,0.00,VWS V13.01,2013-01-22 05:38:00,
2013-01-22 00:43:00,67.1,0.0,30.02,WNW,294,1.0,3.0,0,0.00,,CLR,0.00,VWS V13.01,2013-01-22 05:43:00,
2013-01-22 00:48:00,67.0,0.0,30.02,WNW,294,1.0,3.0,0,0.00,,CLR,0.00,VWS V13.01,2013-01-22 05:48:00,
2013-01-22 00:53:00,66.9,0.0,30.02,WNW,294,0.0,3.0,0,0.00,,CLR,0.00,VWS V13.01,2013-01-22 05:53:00,
2013-01-22 00:58:00,66.8,0.0,30.02,WNW,294,0.0,3.0,0,0.00,,CLR,0.00,VWS V13.01,2013-01-22 05:58:00,
2013-01-22 01:03:00,66.7,0.0,30.02,WNW,294,0.0,0.0,0,0.00,,CLR,0.00,VWS V13.01,2013-01-22 06:03:00,
2013-01-22 01:08:00,66.7,0.0,30.01,WNW,294,0.0,0.0,0,0.00,,CLR,0.00,VWS V13.01,2013-01-22 06:08:00,
2013-01-22 01:13:00,66.6,0.0,30.02,WNW,294,0.0,0.0,0,0.00,,CLR,0.00,VWS V13.01,2013-01-22 06:13:00,
2013-01-22 01:18:00,66.5,0.0,30.02,WNW,294,0.0,0.0,0,0.00,,CLR,0.00,VWS V13.01,2013-01-22 06:18:00,
2013-01-22 01:23:00,66.5,0.0,30.01,WNW,294,0.0,0.0,0,0.00,,CLR,0.00,VWS V13.01,2013-01-22 06:23:00,
2013-01-22 01:28:00,66.4,0.0,30.01,WNW,294,0.0,0.0,0,0.00,,CLR,0.00,VWS V13.01,2013-01-22 06:28:00,
2013-01-22 01:33:00,66.3,0.0,30.01,WNW,294,0.0,0.0,0,0.00,,CLR,0.00,VWS V13.01,2013-01-22 06:33:00,
2013-01-22 01:38:00,66.3,0.0,30.00,WNW,294,0.0,2.0,0,0.00,,CLR,0.00,VWS V13.01,2013-01-22 06:38:00,
2013-01-22 01:43:00,66.2,0.0,30.00,WNW,294,0.0,2.0,0,0.00,,CLR,0.00,VWS V13.01,2013-01-22 06:43:00,
2013-01-22 01:48:00,66.1,0.0,30.00,WNW,294,0.0,2.0,0,0.00,,CLR,0.00,VWS V13.01,2013-01-22 06:48:00,
2013-01-22 01:53:00,66.0,0.0,30.00,WNW,294,0.0,2.0,0,0.00,,CLR,0.00,VWS V13.01,2013-01-22 06:53:00,
2013-01-22 01:58:00,65.9,0.0,30.00,WNW,294,0.0,3.0,0,0.00,,CLR,0.00,VWS V13.01,2013-01-22 06:58:00,
2013-01-22 02:03:00,65.9,0.0,30.01,WNW,294,1.0,3.0,0,0.00,,CLR,0.00,VWS V13.01,2013-01-22 07:03:00,
2013-01-22 02:08:00,65.8,0.0,30.01,WNW,294,0.0,3.0,0,0.00,,CLR,0.00,VWS V13.01,2013-01-22 07:08:00,
2013-01-22 02:13:00,65.7,0.0,30.00,WNW,294,0.0,3.0,0,0.00,,CLR,0.00,VWS V13.01,2013-01-22 07:13:00,
2013-01-22 02:18:00,65.7,0.0,30.00,WNW,292,0.0,6.0,0,0.00,,CLR,0.00,VWS V13.01,2013-01-22 07:18:00,
2013-01-22 02:23:00,65.6,0.0,30.00,WNW,292,0.0,6.0,0,0.00,,CLR,0.00,VWS V13.01,2013-01-22 07:23:00,
2013-01-22 02:28:00,65.6,0.0,30.00,WNW,293,2.0,6.0,0,0.00,,CLR,0.00,VWS V13.01,2013-01-22 07:28:00,
2013-01-22 02:33:00,65.5,0.0,30.01,WNW,289,0.0,6.0,0,0.00,,CLR,0.00,VWS V13.01,2013-01-22 07:33:00,
2013-01-22 02:38:00,65.5,0.0,30.01,WNW,290,2.0,6.0,0,0.00,,CLR,0.00,VWS V13.01,2013-01-22 07:38:00,
2013-01-22 02:43:00,65.5,0.0,30.01,WNW,292,2.0,6.0,0,0.00,,CLR,0.00,VWS V13.01,2013-01-22 07:43:00,
2013-01-22 02:48:00,65.6,0.0,30.01,WNW,292,4.0,6.0,0,0.00,,CLR,0.00,VWS V13.01,2013-01-22 07:48:00,
2013-01-22 02:53:00,65.5,0.0,30.00,WNW,293,2.0,6.0,0,0.00,,CLR,0.00,VWS V13.01,2013-01-22 07:53:00,
2013-01-22 02:58:00,65.5,0.0,30.00,WNW,292,3.0,7.0,0,0.00,,CLR,0.00,VWS V13.01,2013-01-22 07:58:00,
2013-01-22 03:03:00,65.5,0.0,30.00,WNW,292,2.0,5.0,0,0.00,,CLR,0.00,VWS V13.01,2013-01-22 08:03:00,
2013-01-22 03:08:00,65.5,0.0,30.00,WNW,291,3.0,7.0,0,0.00,,CLR,0.00,VWS V13.01,2013-01-22 08:08:00,
2013-01-22 03:13:00,65.4,0.0,30.00,WNW,291,1.0,7.0,0,0.00,,CLR,0.00,VWS V13.01,2013-01-22 08:13:00,
2013-01-22 03:18:00,65.4,0.0,30.00,WNW,292,1.0,7.0,0,0.00,,CLR,0.00,VWS V13.01,2013-01-22 08:18:00,
2013-01-22 03:23:00,65.4,0.0,30.00,WNW,292,1.0,7.0,0,0.00,,CLR,0.00,VWS V13.01,2013-01-22 08:23:00,
2013-01-22 03:28:00,65.4,0.0,30.00,WNW,290,2.0,7.0,0,0.00,,CLR,0.00,VWS V13.01,2013-01-22 08:28:00,
2013-01-22 03:33:00,65.3,0.0,30.00,WNW,290,1.0,3.0,0,0.00,,CLR,0.00,VWS V13.01,2013-01-22 08:33:00,
2013-01-22 03:38:00,65.2,0.0,30.00,WNW,291,1.0,5.0,0,0.00,,CLR,0.00,VWS V13.01,2013-01-22 08:38:00,
2013-01-22 03:43:00,65.2,0.0,30.00,WNW,293,0.0,6.0,0,0.00,,CLR,0.00,VWS V13.01,2013-01-22 08:43:00,
2013-01-22 03:48:00,65.2,0.0,30.00,WNW,302,2.0,9.0,0,0.00,,CLR,0.00,VWS V13.01,2013-01-22 08:48:00,
2013-01-22 03:53:00,65.2,0.0,30.00,WNW,300,3.0,9.0,0,0.00,,CLR,0.00,VWS V13.01,2013-01-22 08:53:00,
2013-01-22 03:58:00,65.1,0.0,30.00,WNW,299,3.0,9.0,0,0.00,,CLR,0.00,VWS V13.01,2013-01-22 08:58:00,
2013-01-22 04:03:00,65.0,0.0,30.00,WNW,298,1.0,5.0,0,0.00,,OVC046,0.00,VWS V13.01,2013-01-22 09:03:00,
2013-01-22 04:08:00,65.0,0.0,30.00,WNW,299,1.0,6.0,0,0.00,,OVC046,0.00,VWS V13.01,2013-01-22 09:08:00,
2013-01-22 04:13:00,64.9,0.0,30.00,WNW,298,0.0,6.0,0,0.00,,OVC046,0.00,VWS V13.01,2013-01-22 09:13:00,
2013-01-22 04:18:00,64.8,0.0,30.00,WNW,299,0.0,6.0,0,0.00,,OVC046,0.00,VWS V13.01,2013-01-22 09:18:00,
2013-01-22 04:23:00,64.8,0.0,30.00,WNW,299,2.0,7.0,0,0.00,,OVC046,0.00,VWS V13.01,2013-01-22 09:23:00,
2013-01-22 04:28:00,64.7,0.0,30.00,WNW,298,4.0,8.0,0,0.00,,OVC046,0.00,VWS V13.01,2013-01-22 09:28:00,
2013-01-22 04:33:00,64.7,0.0,30.00,WNW,298,0.0,4.0,0,0.00,,OVC046,0.00,VWS V13.01,2013-01-22 09:33:00,
2013-01-22 04:38:00,64.6,0.0,30.00,WNW,298,0.0,4.0,0,0.00,,OVC046,0.00,VWS V13.01,2013-01-22 09:38:00,
2013-01-22 04:43:00,64.5,0.0,30.00,WNW,298,0.0,4.0,0,0.00,,OVC046,0.00,VWS V13.01,2013-01-22 09:43:00,
2013-01-22 04:48:00,64.4,0.0,30.00,WNW,298,0.0,4.0,0,0.00,,OVC046,0.00,VWS V13.01,2013-01-22 09:48:00,
2013-01-22 04:53:00,64.3,0.0,30.00,WNW,298,0.0,4.0,0,0.00,,OVC046,0.00,VWS V13.01,2013-01-22 09:53:00,
2013-01-22 04:58:00,64.2,0.0,30.01,WNW,298,0.0,4.0,0,0.00,,OVC046,0.00,VWS V13.01,2013-01-22 09:58:00,
2013-01-22 05:03:00,64.1,0.0,30.01,WNW,298,0.0,0.0,0,0.00,,CLR,0.00,VWS V13.01,2013-01-22 10:03:00,
2013-01-22 05:08:00,64.1,0.0,30.01,WNW,298,0.0,0.0,0,0.00,,CLR,0.00,VWS V13.01,2013-01-22 10:08:00,
2013-01-22 05:13:00,64.0,0.0,30.02,WNW,298,1.0,4.0,0,0.00,,CLR,0.00,VWS V13.01,2013-01-22 10:13:00,
2013-01-22 05:18:00,63.9,0.0,30.02,WNW,298,0.0,4.0,0,0.00,,CLR,0.00,VWS V13.01,2013-01-22 10:18:00,
2013-01-22 05:23:00,63.8,0.0,30.02,WNW,298,1.0,4.0,0,0.00,,CLR,0.00,VWS V13.01,2013-01-22 10:23:00,
2013-01-22 05:28:00,63.7,0.0,30.02,WNW,298,0.0,4.0,0,0.00,,CLR,0.00,VWS V13.01,2013-01-22 10:28:00,
2013-01-22 05:33:00,63.7,0.0,30.02,WNW,298,2.0,3.0,0,0.00,,CLR,0.00,VWS V13.01,2013-01-22 10:33:00,
2013-01-22 05:38:00,63.6,0.0,30.02,WNW,298,1.0,3.0,0,0.00,,CLR,0.00,VWS V13.01,2013-01-22 10:38:00,
2013-01-22 05:43:00,63.6,0.0,30.03,WNW,298,0.0,4.0,0,0.00,,CLR,0.00,VWS V13.01,2013-01-22 10:43:00,
2013-01-22 05:48:00,63.5,0.0,30.03,WNW,298,0.0,4.0,0,0.00,,CLR,0.00,VWS V13.01,2013-01-22 10:48:00,
2013-01-22 05:53:00,63.4,0.0,30.03,WNW,298,1.0,4.0,0,0.00,,CLR,0.00,VWS V13.01,2013-01-22 10:53:00,
2013-01-22 05:58:00,63.4,0.0,30.03,WNW,300,2.0,6.0,0,0.00,,CLR,0.00,VWS V13.01,2013-01-22 10:58:00,
2013-01-22 06:03:00,63.3,0.0,30.03,WNW,300,3.0,5.0,0,0.00,,SCT024,0.00,VWS V13.01,2013-01-22 11:03:00,
2013-01-22 06:08:00,63.2,0.0,30.03,WNW,300,2.0,6.0,0,0.00,,SCT024,0.00,VWS V13.01,2013-01-22 11:08:00,
2013-01-22 06:13:00,63.2,0.0,30.03,WNW,300,1.0,6.0,0,0.00,,SCT024,0.00,VWS V13.01,2013-01-22 11:13:00,
2013-01-22 06:18:00,63.2,0.0,30.03,WNW,300,0.0,6.0,0,0.00,,SCT024,0.00,VWS V13.01,2013-01-22 11:18:00,
2013-01-22 06:23:00,63.1,0.0,30.04,WNW,300,3.0,6.0,0,0.00,,SCT024,0.00,VWS V13.01,2013-01-22 11:23:00,
2013-01-22 06:28:00,63.1,0.0,30.04,WNW,300,2.0,6.0,0,0.00,,SCT024,0.00,VWS V13.01,2013-01-22 11:28:00,
2013-01-22 06:33:00,63.1,0.0,30.04,WNW,299,1.0,5.0,0,0.00,,SCT024,0.00,VWS V13.01,2013-01-22 11:33:00,
2013-01-22 06:38:00,63.1,0.0,30.04,WNW,300,2.0,5.0,0,0.00,,SCT024,0.00,VWS V13.01,2013-01-22 11:38:00,
2013-01-22 06:43:00,63.1,0.0,30.05,WNW,299,2.0,6.0,0,0.00,,SCT024,0.00,VWS V13.01,2013-01-22 11:43:00,
2013-01-22 06:48:00,63.0,0.0,30.05,WNW,298,2.0,6.0,0,0.00,,SCT024,0.00,VWS V13.01,2013-01-22 11:48:00,
2013-01-22 06:53:00,63.0,0.0,30.05,WNW,299,6.0,6.0,0,0.00,,SCT024,0.00,VWS V13.01,2013-01-22 11:53:00,
2013-01-22 06:58:00,63.0,0.0,30.05,WNW,298,5.0,7.0,0,0.00,,SCT024,0.00,VWS V13.01,2013-01-22 11:58:00,
2013-01-22 07:03:00,63.0,0.0,30.05,WNW,300,1.0,4.0,0,0.00,,SCT026,0.00,VWS V13.01,2013-01-22 12:03:00,
2013-01-22 07:08:00,63.0,0.0,30.05,WNW,300,1.0,5.0,0,0.00,,SCT026,0.00,VWS V13.01,2013-01-22 12:08:00,
2013-01-22 07:13:00,63.1,0.0,30.06,WNW,300,6.0,9.0,0,0.00,,SCT026,0.00,VWS V13.01,2013-01-22 12:13:00,
2013-01-22 07:18:00,63.1,0.0,30.06,WNW,300,1.0,9.0,0,0.00,,SCT026,0.00,VWS V13.01,2013-01-22 12:18:00,
2013-01-22 07:23:00,63.1,0.0,30.06,WNW,300,3.0,9.0,0,0.00,,SCT026,0.00,VWS V13.01,2013-01-22 12:23:00,
2013-01-22 07:28:00,63.1,0.0,30.07,WNW,302,3.0,9.0,0,0.00,,SCT026,0.00,VWS V13.01,2013-01-22 12:28:00,
2013-01-22 07:33:00,63.1,0.0,30.07,NW,306,2.0,8.0,0,0.00,,SCT026,0.00,VWS V13.01,2013-01-22 12:33:00,
2013-01-22 07:38:00,63.2,0.0,30.07,WNW,302,5.0,8.0,0,0.00,,SCT026,0.00,VWS V13.01,2013-01-22 12:38:00,
2013-01-22 07:43:00,63.2,0.0,30.07,WNW,302,3.0,8.0,0,0.00,,SCT026,0.00,VWS V13.01,2013-01-22 12:43:00,
2013-01-22 07:49:00,63.3,0.0,30.07,NW,306,3.0,8.0,0,0.00,,SCT026,0.00,VWS V13.01,2013-01-22 12:49:00,
2013-01-22 07:54:00,63.4,0.0,30.07,NW,306,2.0,8.0,0,0.00,,SCT026,0.00,VWS V13.01,2013-01-22 12:54:00,
2013-01-22 07:59:00,63.7,0.0,30.08,NW,305,1.0,8.0,0,0.00,,SCT026,0.00,VWS V13.01,2013-01-22 12:59:00,
2013-01-22 08:04:00,63.8,0.0,30.08,WNW,303,4.0,6.0,0,0.00,,SCT100,0.00,VWS V13.01,2013-01-22 13:04:00,
2013-01-22 08:09:00,64.0,0.0,30.08,NW,306,2.0,7.0,0,0.00,,SCT100,0.00,VWS V13.01,2013-01-22 13:09:00,
2013-01-22 08:14:00,64.3,0.0,30.08,NW,304,3.0,7.0,0,0.00,,SCT100,0.00,VWS V13.01,2013-01-22 13:14:00,
2013-01-22 08:19:00,64.5,0.0,30.08,NW,305,4.0,7.0,0,0.00,,SCT100,0.00,VWS V13.01,2013-01-22 13:19:00,
2013-01-22 08:24:00,64.8,0.0,30.08,NW,306,3.0,7.0,0,0.00,,SCT100,0.00,VWS V13.01,2013-01-22 13:24:00,
2013-01-22 08:29:00,65.0,0.0,30.09,NW,317,3.0,8.0,0,0.00,,SCT100,0.00,VWS V13.01,2013-01-22 13:29:00,
2013-01-22 08:34:00,65.2,0.0,30.09,NW,317,3.0,6.0,0,0.00,,SCT100,0.00,VWS V13.01,2013-01-22 13:34:00,
2013-01-22 08:39:00,65.2,0.0,30.09,NNW,329,4.0,8.0,0,0.00,,SCT100,0.00,VWS V13.01,2013-01-22 13:39:00,
2013-01-22 08:44:00,65.3,0.0,30.09,NNW,329,3.0,8.0,0,0.00,,SCT100,0.00,VWS V13.01,2013-01-22 13:44:00,
2013-01-22 08:49:00,65.6,0.0,30.09,NW,323,2.0,9.0,0,0.00,,SCT100,0.00,VWS V13.01,2013-01-22 13:49:00,
2013-01-22 08:54:00,65.8,0.0,30.09,NNW,340,2.0,9.0,0,0.00,,SCT100,0.00,VWS V13.01,2013-01-22 13:54:00,
2013-01-22 08:59:00,65.8,0.0,30.09,NNW,335,0.0,9.0,0,0.00,,SCT100,0.00,VWS V13.01,2013-01-22 13:59:00,
2013-01-22 09:04:00,65.8,0.0,30.09,NNW,336,4.0,7.0,0,0.00,,CLR,0.00,VWS V13.01,2013-01-22 14:04:00,
2013-01-22 09:09:00,65.8,0.0,30.09,NNW,336,3.0,7.0,0,0.00,,CLR,0.00,VWS V13.01,2013-01-22 14:09:00,
2013-01-22 09:14:00,65.8,0.0,30.09,NNW,342,0.0,7.0,0,0.00,,CLR,0.00,VWS V13.01,2013-01-22 14:14:00,
2013-01-22 09:19:00,65.8,0.0,30.10,North,350,1.0,7.0,0,0.00,,CLR,0.00,VWS V13.01,2013-01-22 14:19:00,
2013-01-22 09:24:00,65.8,0.0,30.10,North,349,1.0,7.0,0,0.00,,CLR,0.00,VWS V13.01,2013-01-22 14:24:00,
2013-01-22 09:29:00,65.8,0.0,30.10,North,355,1.0,7.0,0,0.00,,CLR,0.00,VWS V13.01,2013-01-22 14:29:00,
2013-01-22 09:34:00,65.8,0.0,30.10,NW,313,12.0,12.0,0,0.00,,CLR,0.00,VWS V13.01,2013-01-22 14:34:00,
2013-01-22 09:39:00,65.8,0.0,30.10,North,5,3.0,12.0,0,0.00,,CLR,0.00,VWS V13.01,2013-01-22 14:39:00,
2013-01-22 09:44:00,65.8,0.0,30.10,NNW,334,1.0,12.0,0,0.00,,CLR,0.00,VWS V13.01,2013-01-22 14:44:00,
2013-01-22 09:49:00,65.8,0.0,30.11,NNW,343,0.0,12.0,0,0.00,,CLR,0.00,VWS V13.01,2013-01-22 14:49:00,
2013-01-22 09:54:00,65.8,0.0,30.11,NW,326,0.0,12.0,0,0.00,,CLR,0.00,VWS V13.01,2013-01-22 14:54:00,
2013-01-22 09:59:00,65.8,0.0,30.11,NNW,335,0.0,12.0,0,0.00,,CLR,0.00,VWS V13.01,2013-01-22 14:59:00,
2013-01-22 10:04:00,65.8,0.0,30.11,North,355,1.0,2.0,0,0.00,,BKN160,0.00,VWS V13.01,2013-01-22 15:04:00,
2013-01-22 10:09:00,65.8,0.0,30.11,North,351,0.0,4.0,0,0.00,,BKN160,0.00,VWS V13.01,2013-01-22 15:09:00,
2013-01-22 10:14:00,65.8,0.0,30.11,NNE,15,1.0,4.0,0,0.00,,BKN160,0.00,VWS V13.01,2013-01-22 15:14:00,
2013-01-22 10:19:00,65.8,0.0,30.11,NNW,343,0.0,4.0,0,0.00,,BKN160,0.00,VWS V13.01,2013-01-22 15:19:00,
2013-01-22 10:24:00,65.8,0.0,30.11,NNW,331,1.0,4.0,0,0.00,,BKN160,0.00,VWS V13.01,2013-01-22 15:24:00,
2013-01-22 10:29:00,65.8,0.0,30.12,North,355,1.0,4.0,0,0.00,,BKN160,0.00,VWS V13.01,2013-01-22 15:29:00,
2013-01-22 10:34:00,65.8,0.0,30.11,North,355,0.0,3.0,0,0.00,,BKN160,0.00,VWS V13.01,2013-01-22 15:34:00,
2013-01-22 10:39:00,65.8,0.0,30.11,North,360,0.0,10.0,0,0.00,,BKN160,0.00,VWS V13.01,2013-01-22 15:39:00,
2013-01-22 10:44:00,65.8,0.0,30.11,NNW,342,0.0,10.0,0,0.00,,BKN160,0.00,VWS V13.01,2013-01-22 15:44:00,
2013-01-22 10:49:00,65.8,0.0,30.11,North,355,0.0,10.0,0,0.00,,BKN160,0.00,VWS V13.01,2013-01-22 15:49:00,
2013-01-22 10:54:00,65.8,0.0,30.11,NNE,16,0.0,10.0,0,0.00,,BKN160,0.00,VWS V13.01,2013-01-22 15:54:00,
2013-01-22 10:59:00,65.8,0.0,30.11,North,5,0.0,10.0,0,0.00,,BKN160,0.00,VWS V13.01,2013-01-22 15:59:00,
2013-01-22 11:04:00,65.8,0.0,30.11,NNE,13,0.0,10.0,0,0.00,,BKN160,0.00,VWS V13.01,2013-01-22 16:04:00,
2013-01-22 11:09:00,65.8,0.0,30.11,NNW,338,7.0,11.0,0,0.00,,BKN160,0.00,VWS V13.01,2013-01-22 16:09:00,
2013-01-22 11:14:00,65.8,0.0,30.11,NNW,336,0.0,13.0,0,0.00,,BKN160,0.00,VWS V13.01,2013-01-22 16:14:00,
2013-01-22 11:19:00,65.8,0.0,30.11,North,9,0.0,13.0,0,0.00,,BKN160,0.00,VWS V13.01,2013-01-22 16:19:00,
2013-01-22 11:24:00,65.8,0.0,30.11,NNE,25,0.0,13.0,0,0.00,,BKN160,0.00,VWS V13.01,2013-01-22 16:24:00,
2013-01-22 11:29:00,65.8,0.0,30.11,North,9,0.0,13.0,0,0.00,,BKN160,0.00,VWS V13.01,2013-01-22 16:29:00,
2013-01-22 11:34:00,65.8,0.0,30.11,North,349,1.0,6.0,0,0.00,,BKN160,0.00,VWS V13.01,2013-01-22 16:34:00,
2013-01-22 11:39:00,65.8,0.0,30.11,NNW,340,0.0,6.0,0,0.00,,BKN160,0.00,VWS V13.01,2013-01-22 16:39:00,
2013-01-22 11:44:00,65.8,0.0,30.11,North,355,0.0,6.0,0,0.00,,BKN160,0.00,VWS V13.01,2013-01-22 16:44:00,
2013-01-22 11:49:00,65.8,0.0,30.11,NW,325,4.0,6.0,0,0.00,,BKN160,0.00,VWS V13.01,2013-01-22 16:49:00,
2013-01-22 11:54:00,65.8,0.0,30.10,NNW,348,0.0,11.0,0,0.00,,BKN160,0.00,VWS V13.01,2013-01-22 16:54:00,
2013-01-22 11:59:00,65.8,0.0,30.10,NNE,15,6.0,11.0,0,0.00,,BKN160,0.00,VWS V13.01,2013-01-22 16:59:00,
2013-01-22 12:04:00,65.8,0.0,30.10,NNE,22,0.0,2.0,0,0.00,,BKN150,0.00,VWS V13.01,2013-01-22 17:04:00,
2013-01-22 12:09:00,65.8,0.0,30.10,North,9,0.0,3.0,0,0.00,,BKN150,0.00,VWS V13.01,2013-01-22 17:09:00,
2013-01-22 12:14:00,65.8,0.0,30.10,NNE,13,0.0,3.0,0,0.00,,BKN150,0.00,VWS V13.01,2013-01-22 17:14:00,
2013-01-22 12:19:00,65.8,0.0,30.09,NNW,334,0.0,3.0,0,0.00,,BKN150,0.00,VWS V13.01,2013-01-22 17:19:00,
2013-01-22 12:24:00,71.3,0.0,30.09,North,5,0.0,3.0,0,0.00,,BKN150,0.00,VWS V13.01,2013-01-22 17:24:00,
2013-01-22 12:29:00,71.1,0.0,30.09,NNW,344,1.0,3.0,0,0.00,,BKN150,0.00,VWS V13.01,2013-01-22 17:29:00,
2013-01-22 12:34:00,71.0,0.0,30.09,North,360,5.0,13.0,0,0.00,,BKN150,0.00,VWS V13.01,2013-01-22 17:34:00,
2013-01-22 12:39:00,71.0,0.0,30.08,North,10,0.0,13.0,0,0.00,,BKN150,0.00,VWS V13.01,2013-01-22 17:39:00,
2013-01-22 12:44:00,71.3,0.0,30.08,NNW,328,1.0,13.0,0,0.00,,BKN150,0.00,VWS V13.01,2013-01-22 17:44:00,
2013-01-22 12:49:00,71.7,0.0,30.08,North,5,0.0,13.0,0,0.00,,BKN150,0.00,VWS V13.01,2013-01-22 17:49:00,
2013-01-22 12:54:00,71.5,0.0,30.08,NNE,27,0.0,13.0,0,0.00,,BKN150,0.00,VWS V13.01,2013-01-22 17:54:00,
2013-01-22 12:59:00,71.5,0.0,30.08,North,355,1.0,13.0,0,0.00,,BKN150,0.00,VWS V13.01,2013-01-22 17:59:00,
2013-01-22 13:04:00,71.7,0.0,30.08,NNW,348,2.0,8.0,0,0.00,,BKN250,0.00,VWS V13.01,2013-01-22 18:04:00,
2013-01-22 13:09:00,72.3,0.0,30.07,North,350,0.0,9.0,0,0.00,,BKN250,0.00,VWS V13.01,2013-01-22 18:09:00,
2013-01-22 13:14:00,72.8,0.0,30.07,NNE,15,0.0,9.0,0,0.00,,BKN250,0.00,VWS V13.01,2013-01-22 18:14:00,
2013-01-22 13:19:00,73.1,0.0,30.07,North,5,0.0,11.0,0,0.00,,BKN250,0.00,VWS V13.01,2013-01-22 18:19:00,
2013-01-22 13:24:00,73.9,0.0,30.07,NNW,336,0.0,11.0,0,0.00,,BKN250,0.00,VWS V13.01,2013-01-22 18:24:00,
2013-01-22 13:29:00,74.6,0.0,30.07,North,360,1.0,14.0,0,0.00,,BKN250,0.00,VWS V13.01,2013-01-22 18:29:00,
2013-01-22 13:34:00,74.3,0.0,30.07,NNE,24,5.0,9.0,0,0.00,,BKN250,0.00,VWS V13.01,2013-01-22 18:34:00,
2013-01-22 13:39:00,73.2,35.3,30.07,North,360,1.0,12.0,25,0.00,,BKN250,0.00,VWS V13.01,2013-01-22 18:39:00,
2013-01-22 13:44:00,72.5,34.7,30.07,North,355,4.0,14.0,25,0.00,,BKN250,0.00,VWS V13.01,2013-01-22 18:44:00,
2013-01-22 13:49:00,71.8,32.0,30.07,NNE,19,6.0,14.0,23,0.00,,BKN250,0.00,VWS V13.01,2013-01-22 18:49:00,
2013-01-22 13:54:00,71.5,29.5,30.07,NNW,348,1.0,14.0,21,0.00,,BKN250,0.00,VWS V13.01,2013-01-22 18:54:00,
2013-01-22 13:59:00,71.3,29.4,30.07,North,355,4.0,14.0,21,0.00,,BKN250,0.00,VWS V13.01,2013-01-22 18:59:00,
2013-01-22 14:04:00,71.2,30.4,30.07,North,360,1.0,12.0,22,0.00,,BKN055,0.00,VWS V13.01,2013-01-22 19:04:00,
2013-01-22 14:09:00,71.2,31.5,30.06,NNW,347,8.0,12.0,23,0.00,,BKN055,0.00,VWS V13.01,2013-01-22 19:09:00,
2013-01-22 14:14:00,71.4,32.8,30.06,NNE,19,1.0,12.0,24,0.00,,BKN055,0.00,VWS V13.01,2013-01-22 19:14:00,
2013-01-22 14:19:00,72.2,35.4,30.06,North,350,5.0,12.0,26,0.00,,BKN055,0.00,VWS V13.01,2013-01-22 19:19:00,
2013-01-22 14:24:00,73.2,40.8,30.06,NNE,30,2.0,12.0,31,0.00,,BKN055,0.00,VWS V13.01,2013-01-22 19:24:00,
2013-01-22 14:29:00,74.0,45.4,30.06,North,355,9.0,13.0,36,0.00,,BKN055,0.00,VWS V13.01,2013-01-22 19:29:00,
2013-01-22 14:34:00,73.7,45.8,30.06,NNE,29,9.0,13.0,37,0.00,,BKN055,0.00,VWS V13.01,2013-01-22 19:34:00,
2013-01-22 14:39:00,73.0,43.8,30.06,NNE,12,6.0,13.0,35,0.00,,BKN055,0.00,VWS V13.01,2013-01-22 19:39:00,
2013-01-22 14:44:00,72.8,42.8,30.06,NNE,24,1.0,13.0,34,0.00,,BKN055,0.00,VWS V13.01,2013-01-22 19:44:00,
2013-01-22 14:49:00,72.3,42.4,30.07,North,5,0.0,13.0,34,0.00,,BKN055,0.00,VWS V13.01,2013-01-22 19:49:00,
2013-01-22 14:54:00,72.2,42.3,30.07,NNW,346,1.0,13.0,34,0.00,,BKN055,0.00,VWS V13.01,2013-01-22 19:54:00,
2013-01-22 14:59:00,71.6,39.4,30.07,NE,34,4.0,13.0,31,0.00,,BKN055,0.00,VWS V13.01,2013-01-22 19:59:00,
2013-01-22 15:04:00,71.1,35.5,30.08,NNE,15,3.0,4.0,27,0.00,,BKN100,0.00,VWS V13.01,2013-01-22 20:04:00,
2013-01-22 15:09:00,70.8,34.2,30.07,NE,34,10.0,10.0,26,0.00,,BKN100,0.00,VWS V13.01,2013-01-22 20:09:00,
2013-01-22 15:14:00,70.6,33.1,30.08,NNE,14,6.0,19.0,25,0.00,,BKN100,0.00,VWS V13.01,2013-01-22 20:14:00,
2013-01-22 15:19:00,70.1,30.6,30.08,NNE,27,7.0,19.0,23,0.00,,BKN100,0.00,VWS V13.01,2013-01-22 20:19:00,
2013-01-22 15:24:00,70.2,26.0,30.08,NE,41,6.0,19.0,19,0.00,,BKN100,0.00,VWS V13.01,2013-01-22 20:24:00,
2013-01-22 15:29:00,70.8,29.0,30.08,North,355,7.0,19.0,21,0.00,,BKN100,0.00,VWS V13.01,2013-01-22 20:29:00,
2013-01-22 15:34:00,71.2,34.6,30.08,North,5,10.0,11.0,26,0.00,,BKN100,0.00,VWS V13.01,2013-01-22 20:34:00,
2013-01-22 15:39:00,71.4,35.7,30.08,NNE,28,0.0,14.0,27,0.00,,BKN100,0.00,VWS V13.01,2013-01-22 20:39:00,
2013-01-22 15:44:00,71.5,36.7,30.08,NNE,29,1.0,15.0,28,0.00,,BKN100,0.00,VWS V13.01,2013-01-22 20:44:00,
2013-01-22 15:49:00,71.5,40.1,30.09,NNE,22,2.0,16.0,32,0.00,,BKN100,0.00,VWS V13.01,2013-01-22 20:49:00,
2013-01-22 15:54:00,70.8,39.5,30.09,NNE,17,4.0,16.0,32,0.00,,BKN100,0.00,VWS V13.01,2013-01-22 20:54:00,
2013-01-22 15:59:00,70.0,32.6,30.09,NNW,344,9.0,16.0,25,0.00,,BKN100,0.00,VWS V13.01,2013-01-22 20:59:00,
2013-01-22 16:04:00,70.1,32.7,30.09,North,360,0.0,9.0,25,0.00,,SCT044,0.00,VWS V13.01,2013-01-22 21:04:00,
2013-01-22 16:09:00,70.6,35.0,30.10,NNE,22,10.0,13.0,27,0.00,,SCT044,0.00,VWS V13.01,2013-01-22 21:09:00,
2013-01-22 16:14:00,71.0,34.4,30.10,NNE,26,9.0,13.0,26,0.00,,SCT044,0.00,VWS V13.01,2013-01-22 21:14:00,
2013-01-22 16:19:00,70.8,35.2,30.10,North,5,0.0,13.0,27,0.00,,SCT044,0.00,VWS V13.01,2013-01-22 21:19:00,
2013-01-22 16:24:00,70.2,32.8,30.10,ENE,67,0.0,13.0,25,0.00,,SCT044,0.00,VWS V13.01,2013-01-22 21:24:00,
2013-01-22 16:29:00,70.1,34.6,30.10,North,355,7.0,16.0,27,0.00,,SCT044,0.00,VWS V13.01,2013-01-22 21:29:00,
2013-01-22 16:31:00,69.9,34.4,30.10,NNE,17,15.0,17.0,27,0.00,,SCT044,0.00,VWS V13.01,2013-01-22 21:31:00,
2013-01-22 16:36:00,69.2,29.9,30.10,North,11,2.0,11.0,23,0.00,,SCT044,0.00,VWS V13.01,2013-01-22 21:36:00,
2013-01-22 16:41:00,69.1,29.8,30.10,NNE,16,4.0,14.0,23,0.00,,SCT044,0.00,VWS V13.01,2013-01-22 21:41:00,
2013-01-22 16:46:00,69.0,28.6,30.10,NNE,15,5.0,16.0,22,0.00,,SCT044,0.00,VWS V13.01,2013-01-22 21:46:00,
2013-01-22 16:51:00,68.9,27.4,30.11,NNE,30,0.0,16.0,21,0.00,,SCT044,0.00,VWS V13.01,2013-01-22 21:51:00,
2013-01-22 16:56:00,68.8,27.3,30.11,NNE,19,0.0,16.0,21,0.00,,SCT044,0.00,VWS V13.01,2013-01-22 21:56:00,
2013-01-22 17:02:00,68.4,23.3,30.11,North,5,3.0,16.0,18,0.00,,SCT200,0.00,VWS V13.01,2013-01-22 22:02:00,
2013-01-22 17:07:00,68.0,20.2,30.11,North,11,1.0,14.0,16,0.00,,SCT200,0.00,VWS V13.01,2013-01-22 22:07:00,
2013-01-22 17:12:00,67.7,16.8,30.12,NNE,13,8.0,14.0,14,0.00,,SCT200,0.00,VWS V13.01,2013-01-22 22:12:00,
2013-01-22 17:17:00,67.4,13.1,30.11,NNE,22,0.0,14.0,12,0.00,,SCT200,0.00,VWS V13.01,2013-01-22 22:17:00,
2013-01-22 17:22:00,67.2,8.8,30.11,NNE,13,7.0,14.0,10,0.00,,SCT200,0.00,VWS V13.01,2013-01-22 22:22:00,
2013-01-22 17:27:00,67.0,3.8,30.12,North,5,3.0,14.0,8,0.00,,SCT200,0.00,VWS V13.01,2013-01-22 22:27:00,
2013-01-22 17:32:00,66.8,-2.5,30.13,NNW,334,1.0,2.0,6,0.00,,SCT200,0.00,VWS V13.01,2013-01-22 22:32:00,
2013-01-22 17:37:00,66.7,-10.9,30.13,North,5,0.0,11.0,4,0.00,,SCT200,0.00,VWS V13.01,2013-01-22 22:37:00,
2013-01-22 17:42:00,66.5,-16.8,30.13,NNW,346,0.0,11.0,3,0.00,,SCT200,0.00,VWS V13.01,2013-01-22 22:42:00,
2013-01-22 17:47:00,66.3,-37.2,30.12,North,350,0.0,11.0,1,0.00,,SCT200,0.00,VWS V13.01,2013-01-22 22:47:00,
2013-01-22 17:52:00,66.1,0.0,30.13,North,5,0.0,11.0,0,0.00,,SCT200,0.00,VWS V13.01,2013-01-22 22:52:00,
2013-01-22 17:57:00,66.0,0.0,30.13,North,360,1.0,11.0,0,0.00,,SCT200,0.00,VWS V13.01,2013-01-22 22:57:00,
2013-01-22 18:02:00,66.0,0.0,30.13,NNE,28,1.0,2.0,0,0.00,,SCT048,0.00,VWS V13.01,2013-01-22 23:02:00,
2013-01-22 18:07:00,66.2,0.0,30.13,North,360,8.0,11.0,0,0.00,,SCT048,0.00,VWS V13.01,2013-01-22 23:07:00,
2013-01-22 18:12:00,66.3,-24.6,30.13,NNE,28,1.0,11.0,2,0.00,,SCT048,0.00,VWS V13.01,2013-01-22 23:12:00,
2013-01-22 18:17:00,66.3,-6.7,30.13,North,9,0.0,13.0,5,0.00,,SCT048,0.00,VWS V13.01,2013-01-22 23:17:00,
2013-01-22 18:22:00,66.3,0.4,30.13,NNE,28,3.0,13.0,7,0.00,,SCT048,0.00,VWS V13.01,2013-01-22 23:22:00,
2013-01-22 18:27:00,66.3,0.4,30.13,North,9,1.0,13.0,7,0.00,,SCT048,0.00,VWS V13.01,2013-01-22 23:27:00,
2013-01-22 18:32:00,66.2,3.2,30.13,NNE,23,0.0,6.0,8,0.00,,SCT048,0.00,VWS V13.01,2013-01-22 23:32:00,
2013-01-22 18:37:00,66.2,3.2,30.13,NNE,24,0.0,9.0,8,0.00,,SCT048,0.00,VWS V13.01,2013-01-22 23:37:00,
2013-01-22 18:42:00,66.1,3.1,30.13,NNE,28,1.0,9.0,8,0.00,,SCT048,0.00,VWS V13.01,2013-01-22 23:42:00,
2013-01-22 18:47:00,66.1,5.7,30.13,NE,46,5.0,12.0,9,0.00,,SCT048,0.00,VWS V13.01,2013-01-22 23:47:00,
2013-01-22 18:52:00,66.3,8.1,30.14,NNE,24,0.0,15.0,10,0.00,,SCT048,0.00,VWS V13.01,2013-01-22 23:52:00,
2013-01-22 18:57:00,66.3,8.1,30.14,NNE,27,0.0,15.0,10,0.00,,SCT048,0.00,VWS V13.01,2013-01-22 23:57:00,
2013-01-22 19:02:00,66.3,12.2,30.14,NE,37,4.0,11.0,12,0.00,,OVC044,0.00,VWS V13.01,2013-01-23 00:02:00,
2013-01-22 19:07:00,66.4,15.8,30.14,NNE,28,0.0,14.0,14,0.00,,OVC044,0.00,VWS V13.01,2013-01-23 00:07:00,
2013-01-22 19:12:00,66.5,19.0,30.14,NNE,14,0.0,14.0,16,0.00,,OVC044,0.00,VWS V13.01,2013-01-23 00:12:00,
2013-01-22 19:17:00,66.7,23.2,30.15,NE,36,0.0,14.0,19,0.00,,OVC044,0.00,VWS V13.01,2013-01-23 00:17:00,
2013-01-22 19:22:00,67.0,26.9,30.15,NE,46,2.0,14.0,22,0.00,,OVC044,0.00,VWS V13.01,2013-01-23 00:22:00,
2013-01-22 19:27:00,67.2,30.2,30.15,NE,42,1.0,14.0,25,0.00,,OVC044,0.00,VWS V13.01,2013-01-23 00:27:00,
2013-01-22 19:32:00,67.3,31.3,30.15,NE,36,1.0,12.0,26,0.00,,OVC044,0.00,VWS V13.01,2013-01-23 00:32:00,
2013-01-22 19:37:00,67.5,34.2,30.15,NE,34,9.0,12.0,29,0.00,,OVC044,0.00,VWS V13.01,2013-01-23 00:37:00,
2013-01-22 19:42:00,67.6,35.1,30.15,NNE,13,11.0,12.0,30,0.00,,OVC044,0.00,VWS V13.01,2013-01-23 00:42:00,
2013-01-22 19:47:00,67.6,35.9,30.16,NE,34,4.0,12.0,31,0.00,,OVC044,0.00,VWS V13.01,2013-01-23 00:47:00,
2013-01-22 19:52:00,67.6,35.9,30.15,NE,35,0.0,12.0,31,0.00,,OVC044,0.00,VWS V13.01,2013-01-23 00:52:00,
2013-01-22 19:57:00,67.6,36.7,30.15,NE,49,13.0,13.0,32,0.00,,OVC044,0.00,VWS V13.01,2013-01-23 00:57:00,
2013-01-22 20:02:00,67.5,35.0,30.15,NNE,31,4.0,9.0,30,0.00,,SCT046,0.00,VWS V13.01,2013-01-23 01:02:00,
2013-01-22 20:07:00,67.5,35.0,30.15,NE,51,5.0,13.0,30,0.00,,SCT046,0.00,VWS V13.01,2013-01-23 01:07:00,
2013-01-22 20:12:00,67.6,35.9,30.15,NE,38,0.0,13.0,31,0.00,,SCT046,0.00,VWS V13.01,2013-01-23 01:12:00,
2013-01-22 20:17:00,67.6,35.9,30.16,NNE,19,2.0,13.0,31,0.00,,SCT046,0.00,VWS V13.01,2013-01-23 01:17:00,
2013-01-22 20:22:00,67.5,35.8,30.16,NE,46,2.0,13.0,31,0.00,,SCT046,0.00,VWS V13.01,2013-01-23 01:22:00,
2013-01-22 20:27:00,67.5,35.8,30.16,NNE,23,6.0,13.0,31,0.00,,SCT046,0.00,VWS V13.01,2013-01-23 01:27:00,
2013-01-22 20:33:00,67.7,38.3,30.16,NNE,30,8.0,8.0,34,0.00,,SCT046,0.00,VWS V13.01,2013-01-23 01:33:00,
2013-01-22 20:38:00,67.8,38.4,30.17,NE,36,0.0,11.0,34,0.00,,SCT046,0.00,VWS V13.01,2013-01-23 01:38:00,
2013-01-22 20:42:00,67.8,39.2,30.17,NE,34,0.0,11.0,35,0.00,,SCT046,0.00,VWS V13.01,2013-01-23 01:42:00,
2013-01-22 20:47:00,68.0,40.8,30.17,NNE,31,0.0,11.0,37,0.00,,SCT046,0.00,VWS V13.01,2013-01-23 01:47:00,
2013-01-22 20:53:00,68.2,42.3,30.17,NE,41,2.0,11.0,39,0.00,,SCT046,0.00,VWS V13.01,2013-01-23 01:53:00,
2013-01-22 20:58:00,68.4,43.2,30.17,NE,49,5.0,13.0,40,0.00,,SCT046,0.00,VWS V13.01,2013-01-23 01:58:00,
2013-01-22 21:03:00,68.5,43.2,30.17,NE,34,0.0,4.0,40,0.00,,FEW049,0.00,VWS V13.01,2013-01-23 02:03:00,
2013-01-22 21:08:00,68.6,44.0,30.17,NE,44,3.0,12.0,41,0.00,,FEW049,0.00,VWS V13.01,2013-01-23 02:08:00,
2013-01-22 21:13:00,68.6,44.6,30.18,NE,40,2.0,12.0,42,0.00,,FEW049,0.00,VWS V13.01,2013-01-23 02:13:00,
2013-01-22 21:18:00,68.7,45.3,30.18,ENE,67,2.0,13.0,43,0.00,,FEW049,0.00,VWS V13.01,2013-01-23 02:18:00,
2013-01-22 21:23:00,68.6,44.0,30.19,NNE,28,10.0,13.0,41,0.00,,FEW049,0.00,VWS V13.01,2013-01-23 02:23:00,
2013-01-22 21:28:00,68.6,43.3,30.19,NE,39,6.0,13.0,40,0.00,,FEW049,0.00,VWS V13.01,2013-01-23 02:28:00,
2013-01-22 21:33:00,68.6,44.0,30.19,NNE,28,0.0,12.0,41,0.00,,FEW049,0.00,VWS V13.01,2013-01-23 02:33:00,
2013-01-22 21:38:00,68.6,44.0,30.19,North,5,5.0,12.0,41,0.00,,FEW049,0.00,VWS V13.01,2013-01-23 02:38:00,
2013-01-22 21:43:00,68.7,44.7,30.19,NE,49,5.0,14.0,42,0.00,,FEW049,0.00,VWS V13.01,2013-01-23 02:43:00,
2013-01-22 21:48:00,68.8,45.4,30.19,NE,46,2.0,14.0,43,0.00,,FEW049,0.00,VWS V13.01,2013-01-23 02:48:00,
2013-01-22 21:53:00,68.6,44.6,30.19,NE,40,0.0,14.0,42,0.00,,FEW049,0.00,VWS V13.01,2013-01-23 02:53:00,
2013-01-22 21:58:00,68.7,45.3,30.19,NNE,26,5.0,14.0,43,0.00,,FEW049,0.00,VWS V13.01,2013-01-23 02:58:00,
2013-01-22 22:03:00,68.8,45.4,30.20,NNE,24,2.0,8.0,43,0.00,,FEW050,0.00,VWS V13.01,2013-01-23 03:03:00,
2013-01-22 22:08:00,68.9,46.1,30.20,NE,37,0.0,11.0,44,0.00,,FEW050,0.00,VWS V13.01,2013-01-23 03:08:00,
2013-01-22 22:13:00,68.9,45.5,30.20,NE,40,0.0,11.0,43,0.00,,FEW050,0.00,VWS V13.01,2013-01-23 03:13:00,
2013-01-22 22:18:00,68.8,44.8,30.20,NNE,29,0.0,11.0,42,0.00,,FEW050,0.00,VWS V13.01,2013-01-23 03:18:00,
2013-01-22 22:23:00,68.7,44.7,30.20,NE,41,2.0,11.0,42,0.00,,FEW050,0.00,VWS V13.01,2013-01-23 03:23:00,
2013-01-22 22:28:00,68.8,46.0,30.20,NE,38,5.0,11.0,44,0.00,,FEW050,0.00,VWS V13.01,2013-01-23 03:28:00,
2013-01-22 22:33:00,68.6,44.0,30.20,ENE,65,0.0,3.0,41,0.00,,FEW050,0.00,VWS V13.01,2013-01-23 03:33:00,
2013-01-22 22:38:00,68.6,43.3,30.19,NNE,33,0.0,9.0,40,0.00,,FEW050,0.00,VWS V13.01,2013-01-23 03:38:00,
2013-01-22 22:43:00,68.4,41.8,30.19,NE,47,4.0,12.0,38,0.00,,FEW050,0.00,VWS V13.01,2013-01-23 03:43:00,
2013-01-22 22:48:00,68.3,41.0,30.19,NE,34,4.0,12.0,37,0.00,,FEW050,0.00,VWS V13.01,2013-01-23 03:48:00,
2013-01-22 22:53:00,68.2,40.2,30.19,NE,36,1.0,13.0,36,0.00,,FEW050,0.00,VWS V13.01,2013-01-23 03:53:00,
2013-01-22 22:58:00,68.1,39.4,30.19,NE,46,3.0,13.0,35,0.00,,FEW050,0.00,VWS V13.01,2013-01-23 03:58:00,
2013-01-22 23:03:00,68.1,39.4,30.19,NE,41,1.0,10.0,35,0.00,,BKN049,0.00,VWS V13.01,2013-01-23 04:03:00,
2013-01-22 23:08:00,68.1,40.2,30.19,NE,46,2.0,12.0,36,0.00,,BKN049,0.00,VWS V13.01,2013-01-23 04:08:00,
2013-01-22 23:13:00,68.0,39.3,30.20,NE,46,0.0,12.0,35,0.00,,BKN049,0.00,VWS V13.01,2013-01-23 04:13:00,
2013-01-22 23:18:00,67.9,39.3,30.20,NE,43,0.0,13.0,35,0.00,,BKN049,0.00,VWS V13.01,2013-01-23 04:18:00,
2013-01-22 23:23:00,68.0,40.1,30.19,NNE,23,3.0,13.0,36,0.00,,BKN049,0.00,VWS V13.01,2013-01-23 04:23:00,
2013-01-22 23:28:00,67.9,39.3,30.19,NE,36,4.0,13.0,35,0.00,,BKN049,0.00,VWS V13.01,2013-01-23 04:28:00,
2013-01-22 23:33:00,68.0,39.3,30.19,NE,36,5.0,5.0,35,0.00,,BKN049,0.00,VWS V13.01,2013-01-23 04:33:00,
2013-01-22 23:38:00,67.8,37.7,30.19,NE,53,2.0,10.0,33,0.00,,BKN049,0.00,VWS V13.01,2013-01-23 04:38:00,
2013-01-22 23:43:00,67.6,36.7,30.19,NE,49,1.0,10.0,32,0.00,,BKN049,0.00,VWS V13.01,2013-01-23 04:43:00,
2013-01-22 23:48:00,67.5,35.0,30.19,NE,55,0.0,13.0,30,0.00,,BKN049,0.00,VWS V13.01,2013-01-23 04:48:00,
2013-01-22 23:53:00,67.5,35.0,30.18,NE,47,0.0,13.0,30,0.00,,BKN049,0.00,VWS V13.01,2013-01-23 04:53:00,
2013-01-22 23:58:00,67.5,35.0,30.18,NE,36,1.0,13.0,30,0.00,,BKN049,0.00,VWS V13.01,2013-01-23 04:58:00,